64013000, 5301503, 2016-11-05 00:00:00, 15.04760, 109.41500,   0,  11,   2, 27.52, 1011.20, 15.00, 4,   9, 255, 0.000
64013000, 5301503, 2016-11-05 01:00:00, 15.00940, 109.42320,   0,  10,   4, 27.53, 1011.20, 15.00, 3,  11, 255, 0.000
64013000, 5301503, 2016-11-05 02:00:00, 14.97120, 109.43000,   0,  10,   4, 27.53, 1011.80, 15.00, 3,  13, 255, 0.000
64013000, 5301503, 2016-11-05 03:00:00, 14.92980, 109.43920,   0,  11,   6, 27.58, 1011.20, 15.00, 4,  13, 255, 0.000
64013000, 5301503, 2016-11-05 04:00:00, 14.88640, 109.44920,   0,  10,   2, 27.61, 1010.40, 15.00, 4,   1, 255, 0.000
64013000, 5301503, 2016-11-05 05:00:00, 14.83800, 109.46100,   0,  11,   3, 27.65, 1009.80, 15.00, 4,  13, 255, 0.000
64013000, 5301503, 2016-11-05 06:00:00, 14.78820, 109.47180,   0,  11,   2, 27.72, 1008.80, 15.00, 4,   7, 255, 0.000
64013000, 5301503, 2016-11-05 07:00:00, 14.73620, 109.48100,   0,  11,   6, 27.73, 1008.20, 15.00, 3,  11, 255, 0.000
64013000, 5301503, 2016-11-05 08:00:00, 14.68680, 109.48680,   0,  11,   2, 27.74, 1008.00, 15.00, 5,  10, 255, 0.000
64013000, 5301503, 2016-11-05 09:00:00, 14.63660, 109.49120,   0,  11,   3, 27.72, 1008.30, 15.00, 4,   1, 255, 0.000
64013000, 5301503, 2016-11-05 10:00:00, 14.58580, 109.49560,   0,  11,   5, 27.70, 1008.30, 15.00, 5,  12, 255, 0.000
64013000, 5301503, 2016-11-05 11:00:00, 14.53720, 109.49840,   0,  11,   3, 27.67, 1009.10, 15.00, 3,  12, 255, 0.000
64013000, 5301503, 2016-11-05 12:00:00, 14.48980, 109.50040,   0,  12,   2, 27.66, 1009.40, 15.00, 4,   9, 255, 0.000
64013000, 5301503, 2016-11-05 13:00:00, 14.44240, 109.50020,   0,  11,   4, 27.63, 1010.00, 15.00, 6,  15, 255, 0.000
64013000, 5301503, 2016-11-05 14:00:00, 14.39760, 109.49860,   0,  11,   2, 27.61, 1010.10, 15.00, 2,   8, 255, 0.000
64013000, 5301503, 2016-11-05 15:00:00, 14.35420, 109.49480,   0,  11,   2, 27.60, 1009.90, 15.00, 5,   1, 255, 0.000
64013000, 5301503, 2016-11-05 16:00:00, 14.31440, 109.49160,   0,  11,   2, 27.58, 1009.70, 15.00, 3,   8, 255, 0.000
64013000, 5301503, 2016-11-05 17:00:00, 14.27500, 109.48900,   0,  12,   2, 27.56, 1009.50, 15.00, 3,  16, 255, 0.000
64013000, 5301503, 2016-11-05 18:00:00, 14.23760, 109.48880,   0,  11,   5, 27.55, 1008.90, 15.00, 4,   1, 255, 0.000
64013000, 5301503, 2016-11-05 19:00:00, 14.20240, 109.48880,   0,  11,   2, 27.54, 1008.70, 15.00, 3,   7, 255, 0.000
64013000, 5301503, 2016-11-05 20:00:00, 14.16800, 109.49000,   0,  11,   3, 27.53, 1008.60, 15.00, 3,   8, 255, 0.000
64013000, 5301503, 2016-11-05 21:00:00, 14.13560, 109.49200,   0,  11,   4, 27.53, 1008.80, 15.00, 3,   9, 255, 0.000
64013000, 5301503, 2016-11-05 22:00:00, 14.10700, 109.49580,   0,  10,   3, 27.53, 1009.10, 15.00, 3,  13, 255, 0.000
64013000, 5301503, 2016-11-05 23:00:00, 14.07900, 109.50040,   0,  11,   2, 27.52, 1010.40, 15.00, 3,   7, 255, 0.000
64013000, 5301503, 2016-11-06 00:00:00, 14.04980, 109.50380,   0,  10,   4, 27.53, 1011.10, 15.00, 4,   7, 255, 0.000
64013000, 5301503, 2016-11-06 01:00:00, 14.02080, 109.50600,   0,   9,   4, 27.53, 1011.20, 15.00, 4,   9, 255, 0.000
64013000, 5301503, 2016-11-06 02:00:00, 13.99240, 109.50800,   0,  10,   3, 27.55, 1011.80, 15.00, 3,  21, 255, 0.000
64013000, 5301503, 2016-11-06 03:00:00, 13.96340, 109.51120,   0,  10,   3, 27.58, 1011.90, 15.00, 3,  11, 255, 0.000
64013000, 5301503, 2016-11-06 04:00:00, 13.93440, 109.51540,   0,  11,   1, 27.60, 1011.50, 15.00, 4,   7, 255, 0.000
64013000, 5301503, 2016-11-06 05:00:00, 13.90480, 109.52080,   0,  11,   1, 27.65, 1010.70, 15.00, 3,  12, 255, 0.000
64013000, 5301503, 2016-11-06 06:00:00, 13.87560, 109.52760,   0,  11,   2, 27.76, 1009.80, 15.00, 3,  18, 255, 0.000
64013000, 5301503, 2016-11-06 07:00:00, 13.84280, 109.53200,   0,  10,   3, 27.81, 1009.00, 15.00, 3,  11, 255, 0.000
64013000, 5301503, 2016-11-06 08:00:00, 13.81220, 109.53640,   0,  11,   3, 27.79, 1008.90, 15.00, 4,   8, 255, 0.000
64013000, 5301503, 2016-11-06 09:00:00, 13.78040, 109.54080,   0,  11,   2, 27.83, 1009.10, 15.00, 2,  11, 255, 0.000
64013000, 5301503, 2016-11-06 10:00:00, 13.74860, 109.54480,   0,  11,   1, 27.82, 1009.40, 15.00, 3,   7, 255, 0.000
64013000, 5301503, 2016-11-06 11:00:00, 13.71660, 109.54960,   0,  11,   1, 27.74, 1010.20, 15.00, 3,   9, 255, 0.000
64013000, 5301503, 2016-11-06 12:00:00, 13.68420, 109.55480,   0,  12,   2, 27.71, 1010.80, 15.00, 3,  11, 255, 0.000
64013000, 5301503, 2016-11-06 13:00:00, 13.65080, 109.55800,   0,  11,   1, 27.70, 1011.40, 15.00, 3,   9, 255, 0.000
64013000, 5301503, 2016-11-06 14:00:00, 13.61560, 109.55820,   0,  12,   1, 27.68, 1011.40, 15.00, 3,  12, 255, 0.000
64013000, 5301503, 2016-11-06 15:00:00, 13.57960, 109.55440,   0,  11,   2, 27.69, 1011.40, 15.00, 3,  10, 255, 0.000
64013000, 5301503, 2016-11-06 16:00:00, 13.54580, 109.55160,   0,  11,   1, 27.68, 1011.20, 15.00, 3,   9, 255, 0.000
64013000, 5301503, 2016-11-06 17:00:00, 13.51360, 109.55020,   0,  12,   1, 27.69, 1011.10, 15.00, 3,  11, 255, 0.000
64013000, 5301503, 2016-11-06 18:00:00, 13.48220, 109.54660,   0,  12,   1, 27.66, 1010.60, 15.00, 2,  10, 255, 0.000
64013000, 5301503, 2016-11-06 19:00:00, 13.45140, 109.54240,   0,  11,   2, 27.66, 1010.50, 15.00, 3,  11, 255, 0.000
64013000, 5301503, 2016-11-06 20:00:00, 13.42220, 109.53860,   0,  11,   2, 27.66, 1010.10, 15.00, 2,   8, 255, 0.000
64013000, 5301503, 2016-11-06 21:00:00, 13.39460, 109.53580,   0,  11,   2, 27.60, 1010.40, 15.00, 2,   8, 255, 0.000
64013000, 5301503, 2016-11-06 22:00:00, 13.36840, 109.53500,   0,  11,   1, 27.59, 1010.70, 15.00, 3,  12, 255, 0.000
64013000, 5301503, 2016-11-06 23:00:00, 13.33100, 109.55840,   0,   9,   9, 26.05, 1011.10, 15.00, 6,   1, 255, 0.000
64013000, 5301503, 2016-11-07 00:00:00, 13.30420, 109.55560,   0,   9,   9, 27.26, 1011.70, 15.00, 1,  10, 255, 0.000
64013000, 5301503, 2016-11-07 01:00:00, 13.28760, 109.54700,   0,   8,   8, 27.49, 1012.60, 15.00, 1,   8, 255, 0.000
64013000, 5301503, 2016-11-07 02:00:00, 13.26840, 109.54560,   0,  10,   1, 30.82, 1013.20, 15.00, 1,   8, 255, 0.000
64013000, 5301503, 2016-11-07 03:00:00, 13.25320, 109.55020,   0,  11,   2, 28.86, 1012.90, 15.00, 2,  17, 255, 0.000
64013000, 5301503, 2016-11-07 04:00:00, 13.26440, 109.49400,   0,   9,   4, 28.33, 1012.20, 15.00, 1,  20, 255, 0.000
64013000, 5301503, 2016-11-07 05:00:00, 13.29760, 109.40480,   0,   9,   6, 28.46, 1011.60, 15.00, 10,   1, 255, 0.000
64013000, 5301503, 2016-11-07 06:00:00, 13.35280, 109.31740,   0,  10,   1, 29.33, 1010.80, 15.00, 1,  12, 255, 0.000
64013000, 5301503, 2016-11-07 07:00:00, 13.35740, 109.26760,   0,  10,   5, 29.39, 1009.90, 15.00, 8,  10, 255, 0.000
64013000, 5301503, 2016-11-07 08:00:00, 13.35780, 109.26740,   0,   8,  11, 29.05, 1009.20, 15.00, 4,   4, 255, 0.000
64013000, 5301503, 2016-11-07 09:00:00, 13.35740, 109.26760,   0,   9,   2, 28.61, 1009.60, 15.00, 1,   7, 255, 0.000
64013000, 5301503, 2016-11-07 10:00:00, 13.35740, 109.26760,   0,   9,   2, 28.43, 1010.00, 15.00, 1,   9, 255, 0.000
64013000, 5301503, 2016-11-07 11:00:00, 13.35760, 109.26740,   0,  10,   1, 28.20, 1010.50, 15.00, 1,   9, 255, 0.000
64013000, 5301503, 2016-11-07 12:00:00, 13.35760, 109.26740,   0,   9,   2, 27.98, 1011.10, 15.00, 0,   1, 255, 0.000
64013000, 5301503, 2016-11-07 13:00:00, 13.35740, 109.26760,   0,   9,   2, 27.79, 1011.70, 15.00, 0,  12, 255, 0.000
64013000, 5301503, 2016-11-07 14:00:00, 13.35740, 109.26760,   0,   8,   2, 27.45, 1012.10, 15.00, 1,   8, 255, 0.000
64013000, 5301503, 2016-11-07 15:00:00, 13.35760, 109.26740,   0,   9,   2, 27.42, 1012.20, 15.00, 1,  16, 255, 0.000
64013000, 5301503, 2016-11-07 16:00:00, 13.35760, 109.26740,   0,   9,   2, 27.39, 1012.00, 15.00, 0,   1, 255, 0.000
64013000, 5301503, 2016-11-07 17:00:00, 13.35740, 109.26760,   0,   9,   4, 27.33, 1011.90, 15.00, 0,  10, 255, 0.000
64013000, 5301503, 2016-11-07 18:00:00, 13.35740, 109.26760,   0,  10,   2, 27.05, 1011.40, 15.00, 1,  10, 255, 0.000
64013000, 5301503, 2016-11-07 19:00:00, 13.35740, 109.26740,   0,   9,   4, 27.02, 1011.10, 15.00, 1,  19, 255, 0.000
64013000, 5301503, 2016-11-07 20:00:00, 13.35740, 109.26760,   0,   9,   4, 27.02, 1010.70, 15.00, 0,   9, 255, 0.000
64013000, 5301503, 2016-11-07 21:00:00, 13.35760, 109.26760,   0,  10,   4, 26.85, 1011.00, 15.00, 0,   1, 255, 0.000
64013000, 5301503, 2016-11-07 22:00:00, 13.35740, 109.26760,   0,   8,   4, 26.69, 1011.40, 15.00, 0,  10, 255, 0.000
64013000, 5301503, 2016-11-07 23:00:00, 13.35740, 109.26760,   0,   9,   1, 26.55, 1012.30, 15.00, 0,   8, 255, 0.000
64013000, 5301503, 2016-11-08 00:00:00, 13.35740, 109.26760,   0,   9,   3, 26.67, 1013.30, 15.00, 0,   1, 255, 0.000
64013000, 5301503, 2016-11-08 01:00:00, 13.35720, 109.26760,   0,   9,   2, 26.89, 1014.00, 15.00, 1,  19, 255, 0.000
64013000, 5301503, 2016-11-08 02:00:00, 13.35740, 109.26760,   0,   8,   5, 27.10, 1014.40, 15.00, 1,   4, 255, 0.000
64013000, 5301503, 2016-11-08 03:00:00, 13.35740, 109.26760,   0,   9,   2, 27.45, 1013.90, 15.00, 1,   8, 255, 0.000
64013000, 5301503, 2016-11-08 04:00:00, 13.35740, 109.26740,   0,   9,   2, 27.48, 1013.40, 15.00, 0,   8, 255, 0.000
64013000, 5301503, 2016-11-08 05:00:00, 13.35740, 109.26760,   0,   9,   2, 27.96, 1012.70, 15.00, 1,  21, 255, 0.000
64015370, 5301502, 2016-11-05 00:00:00, 18.30220, 113.85900,   0,  11,   8, 27.55, 1011.50, 15.00, 6,  12, 255, 0.000
64015370, 5301502, 2016-11-05 01:00:00, 18.30760, 113.85720,   0,  11,   4, 27.53, 1011.80, 15.00, 8,  12, 255, 0.000
64015370, 5301502, 2016-11-05 02:00:00, 18.31340, 113.85480,   0,  10,   6, 27.57, 1012.10, 15.00, 6,  11, 255, 0.000
64015370, 5301502, 2016-11-05 03:00:00, 18.31980, 113.85200,   0,  10,   7, 27.58, 1011.80, 15.00, 5,  16, 255, 0.000
64015370, 5301502, 2016-11-05 04:00:00, 18.32640, 113.85000,   0,  11,   7, 27.63, 1011.00, 15.00, 5,  10, 255, 0.000
64015370, 5301502, 2016-11-05 05:00:00, 18.33280, 113.84700,   0,  11,   8, 27.64, 1010.30, 15.00, 12,  14, 255, 0.000
64015370, 5301502, 2016-11-05 06:00:00, 18.33980, 113.84540,   0,  11,   4, 27.66, 1009.50, 15.00, 5,  19, 255, 0.000
64015370, 5301502, 2016-11-05 07:00:00, 18.34540, 113.84640,   0,  11,   4, 27.68, 1008.80, 15.00, 6,  11, 255, 0.000
64015370, 5301502, 2016-11-05 08:00:00, 18.34940, 113.84780,   0,  11,   3, 27.67, 1008.80, 15.00, 7,   9, 255, 0.000
64015370, 5301502, 2016-11-05 09:00:00, 18.35320, 113.84920,   0,  11,   4, 27.66, 1009.10, 15.00, 6,   1, 255, 0.000
64015370, 5301502, 2016-11-05 10:00:00, 18.35640, 113.85100,   0,  10,   4, 27.64, 1009.60, 15.00, 8,   9, 255, 0.000
64015370, 5301502, 2016-11-05 11:00:00, 18.35940, 113.85200,   0,  11,   5, 27.63, 1009.80, 15.00, 6,  11, 255, 0.000
64015370, 5301502, 2016-11-05 12:00:00, 18.36220, 113.85100,   0,  12,   6, 27.59, 1010.70, 15.00, 6,  23, 255, 0.000
64015370, 5301502, 2016-11-05 13:00:00, 18.36400, 113.84820,   0,  10,   2, 27.59, 1011.20, 15.00, 5,   9, 255, 0.000
64015370, 5301502, 2016-11-05 14:00:00, 18.36560, 113.84380,   0,  10,  10, 27.60, 1011.50, 15.00, 7,  10, 255, 0.000
64015370, 5301502, 2016-11-05 15:00:00, 18.36720, 113.84000,   0,  11,   8, 27.59, 1011.80, 15.00, 5,   1, 255, 0.000
64015370, 5301502, 2016-11-05 16:00:00, 18.36880, 113.83760,   0,  11,   8, 27.58, 1011.40, 15.00, 6,  14, 255, 0.000
64015370, 5301502, 2016-11-05 17:00:00, 18.37020, 113.83660,   0,  11,   4, 27.55, 1010.90, 15.00, 6,   9, 255, 0.000
64015370, 5301502, 2016-11-05 18:00:00, 18.37340, 113.83560,   0,  11,   3, 27.54, 1010.20, 15.00, 4,  11, 255, 0.000
64015370, 5301502, 2016-11-05 19:00:00, 18.37340, 113.83560,  62,  10,  12, 27.57, 1010.30, 15.00, 5,  18, 255, 0.000
64015370, 5301502, 2016-11-05 20:00:00, 18.37700, 113.83640,   0,  11,   7, 27.55, 1010.20, 15.00, 6,  11, 255, 0.000
64015370, 5301502, 2016-11-05 21:00:00, 18.37740, 113.83600,   0,  11,   5, 27.54, 1010.70, 15.00, 7,  16, 255, 0.000
64015370, 5301502, 2016-11-05 22:00:00, 18.37740, 113.83400,   0,  11,   5, 27.55, 1011.40, 15.00, 6,  11, 255, 0.000
64015370, 5301502, 2016-11-05 23:00:00, 18.37720, 113.83360,   0,  10,   8, 27.55, 1012.30, 15.00, 6,  13, 255, 0.000
64015370, 5301502, 2016-11-06 00:00:00, 18.37840, 113.83540,   0,  11,   8, 27.55, 1012.90, 15.00, 6,  10, 255, 0.000
64015370, 5301502, 2016-11-06 01:00:00, 18.37960, 113.83880,   0,  11,   9, 27.56, 1013.20, 15.00, 7,   7, 255, 0.000
64015370, 5301502, 2016-11-06 02:00:00, 18.38020, 113.84160,   0,  11,   5, 27.59, 1013.60, 15.00, 17,  10, 255, 0.000
64015370, 5301502, 2016-11-06 03:00:00, 18.38060, 113.84180,   0,  10,   9, 27.61, 1013.50, 15.00, 6,  20, 255, 0.000
64015370, 5301502, 2016-11-06 04:00:00, 18.38200, 113.84140,   0,  10,   7, 27.64, 1012.90, 15.00, 6,  11, 255, 0.000
64015370, 5301502, 2016-11-06 05:00:00, 18.38420, 113.83980,   0,  11,   7, 27.67, 1012.30, 15.00, 12,  12, 255, 0.000
64015370, 5301502, 2016-11-06 06:00:00, 18.38720, 113.83520,   0,  11,   5, 27.68, 1011.50, 15.00, 6,  11, 255, 0.000
64015370, 5301502, 2016-11-06 07:00:00, 18.39060, 113.83000,   0,  11,   4, 27.71, 1011.20, 15.00, 5,  11, 255, 0.000
64015370, 5301502, 2016-11-06 08:00:00, 18.39360, 113.82380,   0,  11,   5, 27.69, 1011.10, 15.00, 6,  11, 255, 0.000
64015370, 5301502, 2016-11-06 09:00:00, 18.39700, 113.81760,   0,  11,   5, 27.68, 1011.40, 15.00, 8,  12, 255, 0.000
64015370, 5301502, 2016-11-06 10:00:00, 18.40120, 113.81380,   0,  11,   7, 27.61, 1012.00, 15.00, 6,   8, 255, 0.000
64015370, 5301502, 2016-11-06 11:00:00, 18.40600, 113.81040,   0,  11,   5, 27.63, 1012.30, 15.00, 6,  20, 255, 0.000
64015370, 5301502, 2016-11-06 12:00:00, 18.41100, 113.80560,   0,  12,  11, 27.58, 1012.90, 15.00, 6,  11, 255, 0.000
64015370, 5301502, 2016-11-06 13:00:00, 18.41640, 113.79960,   0,  11,   7, 27.59, 1013.20, 15.00, 5,  10, 255, 0.000
64015370, 5301502, 2016-11-06 14:00:00, 18.42400, 113.79420,   0,  11,   3, 27.54, 1013.60, 15.00, 8,   7, 255, 0.000
64015370, 5301502, 2016-11-06 15:00:00, 18.43180, 113.78920,   0,  11,   6, 27.55, 1013.50, 15.00, 5,  10, 255, 0.000
64015370, 5301502, 2016-11-06 16:00:00, 18.43880, 113.78800,   0,  11,   4, 27.56, 1013.20, 15.00, 6,  11, 255, 0.000
64015370, 5301502, 2016-11-06 17:00:00, 18.44620, 113.78580,   0,  11,   4, 27.55, 1013.20, 15.00, 7,  20, 255, 0.000
64015370, 5301502, 2016-11-06 18:00:00, 18.45340, 113.78480,   0,  11,   4, 27.51, 1013.10, 15.00, 5,   9, 255, 0.000
64015370, 5301502, 2016-11-06 19:00:00, 18.46140, 113.78440,   0,  10,   5, 27.51, 1012.70, 15.00, 6,  11, 255, 0.000
64015370, 5301502, 2016-11-06 20:00:00, 18.46880, 113.78680,   0,  10,   4, 27.52, 1012.70, 15.00, 5,  10, 255, 0.000
64015370, 5301502, 2016-11-06 21:00:00, 18.47580, 113.79080,   0,  11,   2, 27.48, 1013.00, 15.00, 7,  11, 255, 0.000
64015370, 5301502, 2016-11-06 22:00:00, 18.48160, 113.79480,   0,  11,   8, 27.49, 1013.40, 15.00, 6,   8, 255, 0.000
64015370, 5301502, 2016-11-06 23:00:00, 18.48560, 113.79820,   0,  10,   6, 27.46, 1013.90, 15.00, 5,  17, 255, 0.000
64015370, 5301502, 2016-11-07 00:00:00, 18.48920, 113.80360,   0,  11,   4, 27.48, 1014.50, 15.00, 5,   9, 255, 0.000
64015370, 5301502, 2016-11-07 01:00:00, 18.49080, 113.81040,   0,  10,   4, 27.51, 1014.90, 15.00, 6,  11, 255, 0.000
64015370, 5301502, 2016-11-07 02:00:00, 18.49160, 113.81540,   0,  10,   4, 27.52, 1015.20, 15.00, 6,  11, 255, 0.000
64015370, 5301502, 2016-11-07 03:00:00, 18.49280, 113.82180,   0,  11,   7, 27.55, 1014.90, 15.00, 6,  20, 255, 0.000
64015370, 5301502, 2016-11-07 04:00:00, 18.49260, 113.82880,   0,  10,   5, 27.60, 1014.10, 15.00, 5,  10, 255, 0.000
64015370, 5301502, 2016-11-07 05:00:00, 18.49120, 113.83600,   0,  10,   7, 27.63, 1013.30, 15.00, 5,  10, 255, 0.000
64015370, 5301502, 2016-11-07 06:00:00, 18.49120, 113.83600,  61,  11,  12, 27.64, 1012.50, 15.00, 16,  10, 255, 0.000
64015370, 5301502, 2016-11-07 07:00:00, 18.48640, 113.84420,   0,  11,   5, 27.66, 1012.20, 15.00, 4,   9, 255, 0.000
64015370, 5301502, 2016-11-07 08:00:00, 18.48360, 113.84440,   0,  11,   7, 27.65, 1012.00, 15.00, 4,   9, 255, 0.000
64015370, 5301502, 2016-11-07 09:00:00, 18.48120, 113.84280,   0,  11,   5, 27.63, 1012.40, 15.00, 5,   9, 255, 0.000
64015370, 5301502, 2016-11-07 10:00:00, 18.47900, 113.83980,   0,  11,   8, 27.62, 1012.90, 15.00, 5,  21, 255, 0.000
64015370, 5301502, 2016-11-07 11:00:00, 18.47680, 113.83800,   0,  11,   4, 27.61, 1013.30, 15.00, 5,  19, 255, 0.000
64015370, 5301502, 2016-11-07 12:00:00, 18.47440, 113.83540,   0,  12,   5, 27.59, 1013.90, 15.00, 6,  10, 255, 0.000
64015370, 5301502, 2016-11-07 13:00:00, 18.47220, 113.82880,   0,  11,   7, 27.58, 1014.40, 15.00, 7,   9, 255, 0.000
64015370, 5301502, 2016-11-07 14:00:00, 18.47040, 113.81980,   0,  11,   6, 27.57, 1014.60, 15.00, 4,   9, 255, 0.000
64015370, 5301502, 2016-11-07 15:00:00, 18.47060, 113.80860,   0,  11,   3, 27.57, 1014.40, 15.00, 4,  18, 255, 0.000
64015370, 5301502, 2016-11-07 16:00:00, 18.47240, 113.79820,   0,  11,   6, 27.57, 1013.90, 15.00, 6,   8, 255, 0.000
64015370, 5301502, 2016-11-07 17:00:00, 18.47360, 113.79120,   0,  11,   4, 27.56, 1013.70, 15.00, 7,  13, 255, 0.000
64015370, 5301502, 2016-11-07 18:00:00, 18.47620, 113.78360,   0,  11,   6, 27.53, 1013.30, 15.00, 6,  11, 255, 0.000
64015370, 5301502, 2016-11-07 19:00:00, 18.47940, 113.77600,   0,  11,   1, 27.54, 1013.00, 15.00, 5,  15, 255, 0.000
64015370, 5301502, 2016-11-07 20:00:00, 18.48420, 113.76800,   0,  11,   9, 27.52, 1013.10, 15.00, 5,   9, 255, 0.000
64015370, 5301502, 2016-11-07 21:00:00, 18.49020, 113.76180,   0,  11,   4, 27.52, 1013.40, 15.00, 7,  11, 255, 0.000
64015370, 5301502, 2016-11-07 22:00:00, 18.49680, 113.75760,   0,  10,   7, 27.50, 1014.00, 15.00, 4,  10, 255, 0.000
64015370, 5301502, 2016-11-07 23:00:00, 18.50520, 113.75640,   0,  11,   9, 27.52, 1014.60, 15.00, 5,   9, 255, 0.000
64015370, 5301502, 2016-11-08 00:00:00, 18.51280, 113.75780,   0,  11,   6, 27.51, 1015.10, 15.00, 5,  14, 255, 0.000
64015370, 5301502, 2016-11-08 01:00:00, 18.52080, 113.75900,   0,  10,   6, 27.53, 1015.60, 15.00, 7,   8, 255, 0.000
64015370, 5301502, 2016-11-08 02:00:00, 18.52880, 113.76140,   0,  10,   7, 27.54, 1015.90, 15.00, 5,   8, 255, 0.000
64015370, 5301502, 2016-11-08 03:00:00, 18.53500, 113.76360,   0,  11,   7, 27.57, 1015.60, 15.00, 6,   9, 255, 0.000
64015370, 5301502, 2016-11-08 04:00:00, 18.54080, 113.76700,   0,  10,   5, 27.59, 1015.00, 15.00, 6,  19, 255, 0.000
64015370, 5301502, 2016-11-08 05:00:00, 18.54600, 113.77060,   0,  10,   7, 27.64, 1014.20, 15.00, 5,  10, 255, 0.000
64015370, 5301502, 2016-11-08 06:00:00, 18.55000, 113.77460,   0,  11,   8, 27.66, 1013.50, 15.00, 7,  18, 255, 0.000
64015370, 5301502, 2016-11-08 07:00:00, 18.55220, 113.78000,   0,  11,   4, 27.65, 1013.30, 15.00, 6,  10, 255, 0.000
